This demonstration page uses our WeatherBlox Daily Observations layout. Learn more.

39.08367, -84.50855

Hourly Observations for June 3, 2019

Temp ( °F °C ) Dew Point ( °F °C ) Humidity (%) Winds ( mph kmh ) Pressure ( in mb ) Visibility ( mi km ) Precip ( " mm )
12:53 am 00:53 Clear 61 16.1 36 2.2 39 39 N 7 11 29.97 1015 10 16.09344 0 0
1:53 am 01:53 Clear 56 13.3 41 5 57 57 VRB 3 6 30 1016 10 16.09344 0 0
2:53 am 02:53 Clear 51 10.6 43 6.1 74 74 VRB 5 7 30 1016 10 16.09344 0 0
3:53 am 03:53 Clear 50 10 45 7.2 83 83 VRB 5 7 30 1016 10 16.09344 0 0
4:53 am 04:53 Clear 49 9.4 46 7.8 90 90 SE 6 9 30.03 1017 10 16.09344 0 0
5:53 am 05:53 Clear 49 9.4 46 7.8 90 90 VRB 6 9 30.03 1017 10 16.09344 0 0
6:53 am 06:53 Sunny 48 8.9 46 7.8 93 93 Calm 30.09 1019 10 16.09344 0 0
7:53 am 07:53 Sunny 52 11.1 48 8.9 86 86 VRB 3 6 30.09 1019 10 16.09344 0 0
8:53 am 08:53 Sunny 57 13.9 48 8.9 72 72 Calm 30.09 1019 10 16.09344 0 0
9:53 am 09:53 Sunny 63 17.2 44 6.7 50 50 N 5 7 30.12 1020 10 16.09344 0 0
10:53 am 10:53 Sunny 66 18.9 44 6.7 45 45 Calm 30.12 1020 10 16.09344 0 0
11:53 am 11:53 Sunny 68 20 42 5.6 39 39 Calm 30.12 1020 10 16.09344 0 0
12:53 pm 12:53 Sunny 70 21.1 44 6.7 39 39 Calm 30.12 1020 10 16.09344 0 0
1:53 pm 13:53 Sunny 71 21.7 44 6.7 38 38 E 3 6 30.12 1020 10 16.09344 0 0
2:53 pm 14:53 Sunny 74 23.3 47 8.3 38 38 Calm 30.09 1019 10 16.09344 0 0
3:53 pm 15:53 Sunny 74 23.3 47 8.3 38 38 VRB 3 6 30.09 1019 10 16.09344 0 0
4:53 pm 16:53 Sunny 75 23.9 45 7.2 34 34 VRB 5 7 30.09 1019 10 16.09344 0 0
5:53 pm 17:53 Mostly Sunny 75 23.9 50 10 41 41 WNW 3 6 30.09 1019 10 16.09344 0 0
6:53 pm 18:53 Sunny 73 22.8 49 9.4 43 43 WSW 3 6 30.09 1019 10 16.09344 0 0
7:53 pm 19:53 Sunny 73 22.8 46 7.8 38 38 Calm 30.09 1019 10 16.09344 0 0
8:53 pm 20:53 Sunny 65 18.3 54 12.2 68 68 undefined N/A 30.09 1019 10 16.09344 0 0
9:53 pm 21:53 Clear 61 16.1 54 12.2 78 78 Calm 30.09 1019 10 16.09344 0 0
10:53 pm 22:53 Clear 59 15 54 12.2 83 83 Calm 30.12 1020 10 16.09344 0 0
11:53 pm 23:53 Clear 58 14.4 54 12.2 87 87 Calm 30.12 1020 10 16.09344 0 0

Powered by AerisWeather